This demonstration page uses our WeatherBlox Daily Observations layout. Learn more.

Left ArrowRight Arrow

36.19886, -115.1175

Hourly Observations for October 7, 2016

Temp ( °F °C ) Dew Point ( °F °C ) Humidity (%) Winds ( mph kmh ) Pressure ( in mb ) Visibility ( mi km ) Precip ( " mm )
12:53 am 00:53 Clear 61 16.1 17 -8.3 18 18 SE 6 9 30.07 1018 10 16 0.00 0.00
1:53 am 01:53 Clear 61 16.1 16 -8.9 17 17 NW 7 11 30.08 1019 10 16 0.00 0.00
2:53 am 02:53 Clear 61 16.1 15 -9.4 17 17 NW 6 9 30.08 1019 10 16 0.00 0.00
3:53 am 03:53 Clear 59 15 21 -6.1 23 23 W 5 7 30.09 1019 10 16 0.00 0.00
4:53 am 04:53 Clear 58 14.4 21 -6.1 24 24 SW 3 6 30.09 1019 10 16 0.00 0.00
5:53 am 05:53 Clear 58 14.4 19 -7.2 22 22 Calm 30.10 1019 10 16 0.00 0.00
6:53 am 06:53 Sunny 59 15 15 -9.4 18 18 NW 10 17 30.11 1020 10 16 0.00 0.00
7:53 am 07:53 Sunny 61 16.1 19 -7.2 20 20 W 3 6 30.13 1020 10 16 0.00 0.00
8:53 am 08:53 Sunny 66 18.9 18 -7.8 16 16 N 5 7 30.13 1020 10 16 0.00 0.00
9:53 am 09:53 Sunny 71 21.7 18 -7.8 13 13 NNW 7 11 30.13 1020 10 16 0.00 0.00
10:53 am 10:53 Sunny 75 23.9 17 -8.3 11 11 NNE 5 7 30.12 1020 10 16 0.00 0.00
11:53 am 11:53 Sunny 75 23.9 18 -7.8 11 11 Calm 30.10 1019 10 16 0.00 0.00
12:53 pm 12:53 Sunny 79 26.1 18 -7.8 10 10 Calm 30.08 1019 10 16 0.00 0.00
1:53 pm 13:53 Sunny 79 26.1 18 -7.8 10 10 SW 3 6 30.04 1017 10 16 0.00 0.00
2:53 pm 14:53 Sunny 81 27.2 18 -7.8 9 9 ESE 6 9 30.01 1016 10 16 0.00 0.00
3:53 pm 15:53 Sunny 82 27.8 18 -7.8 9 9 E 8 13 30.00 1016 10 16 0.00 0.00
4:53 pm 16:53 Sunny 82 27.8 18 -7.8 9 9 E 5 7 29.99 1016 10 16 0.00 0.00
5:53 pm 17:53 Sunny 80 26.7 17 -8.3 9 9 Calm 29.99 1016 10 16 0.00 0.00
6:53 pm 18:53 Clear 78 25.6 21 -6.1 12 12 W 5 7 29.99 1016 10 16 0.00 0.00
7:53 pm 19:53 Clear 73 22.8 23 -5 15 15 NNW 7 11 30.00 1016 10 16 0.00 0.00
8:53 pm 20:53 Clear 71 21.7 22 -5.6 16 16 NNW 7 11 30.00 1016 10 16 0.00 0.00
9:53 pm 21:53 Clear 73 22.8 17 -8.3 12 12 NNW 8 13 30.00 1016 10 16 0.00 0.00
10:53 pm 22:53 Clear 69 20.6 18 -7.8 14 14 NNW 6 9 30.00 1016 10 16 0.00 0.00
11:53 pm 23:53 Clear 71 21.7 16 -8.9 12 12 NW 8 13 30.00 1016 10 16 0.00 0.00

Powered by AerisWeather